Location: Makakahi
(40.6833°S, 175.6000°E)
Time: 00:05:25
(UTC+00:00)

FENGYUN 1C DEB - Pass Details

Date: 13 December 2024
Orbit: 841 x 907 km, 98.9° (Epoch: 11 January)

Event Time Altitude Azimuth Distance (km) Brightness Sun altitude
Rises 09:20:06 0° 167° (SSE) 3,490 ? -14.7°
Reaches altitude 10° 09:22:31 10° 167° (SSE) 2,536 ? -15.0°
Maximum altitude 09:28:10 87° 255° (WSW) 870 ? -15.7°
Drops below altitude 10° 09:33:40 10° 343° (NNW) 2,471 ? -16.3°
Enters shadow 09:34:14 - 343° (NNW) 2,696 ? -16.4°
